Weather History for Prairie Du Chien, WI

Change the Weather History Date:

Wednesday, June 19, 2013

  Actual Average Record
Temperature  
Mean Temperature 68 °F -  
Max Temperature 80 °F 82 °F 98 °F (1953)
Min Temperature 55 °F 58 °F 46 °F (1976)
Cooling Degree Days 2    
Growing Degree Days 18 (Base 50)    
Moisture  
Dew Point 53 °F    
Average Humidity 59    
Maximum Humidity 83    
Minimum Humidity 41    
Precipitation  
Precipitation 0.00 in - - ()
Sea Level Pressure  
Sea Level Pressure 30.08 in    
Wind  
Wind Speed 4 mph (ESE)    
Max Wind Speed 7 mph    
Max Gust Speed -    
Visibility 10 miles    
Events      
Averages and records for this station are not official NWS values.
T = Trace of Precipitation, MM = Missing Value Source: NWS Daily Summary

Daily Weather History Graph

Daily Weather History Graph

Search for Another Location

Airport:

Trip Planner

Search our weather history database for the weather conditions in past years. The results will help you decide how hot, cold, wet, or windy it might be!

Date:

Astronomy

Jun. 19, 2013 Rise Set
Actual Time 5:25 AM CDT 8:46 PM CDT
Civil Twilight 4:49 AM CDT 9:22 PM CDT
Nautical Twilight 4:03 AM CDT 10:08 PM CDT
Astronomical Twilight 3:06 AM CDT 11:05 PM CDT
Moon 4:35 PM CDT (6/19) 2:14 AM CDT (6/19)
Length of Visible Light 16h 32m
Length of Day
15h 21m
Waxing Gibbous, 80% of the Moon is Illuminated
Jun 19
Waxing Gibbous
Jun 23
Full
Jun 29
Last Quarter
Jul 8
New
Jul 15
First Quarter

Hourly Weather History & Observations

Time (CDT) Temp. Heat Index Dew Point Humidity Pressure Visibility Wind Dir Wind Speed Gust Speed Precip Events Conditions
12:15 AM 62.6 °F - 52.7 °F 70% 30.07 in 10.0 mi East 5.8 mph - N/A   Clear
12:35 AM 63.0 °F - 51.4 °F 66% 30.07 in 10.0 mi East 5.8 mph - N/A   Clear
12:55 AM 62.1 °F - 51.1 °F 67% 30.08 in 10.0 mi East 5.8 mph - N/A   Clear
1:15 AM 61.9 °F - 50.9 °F 67% 30.08 in 10.0 mi East 6.9 mph - N/A   Clear
1:35 AM 61.2 °F - 50.5 °F 68% 30.08 in 10.0 mi ESE 4.6 mph - N/A   Clear
1:55 AM 60.6 °F - 50.7 °F 70% 30.09 in 10.0 mi ESE 3.5 mph - N/A   Clear
2:15 AM 59.9 °F - 50.9 °F 72% 30.09 in 10.0 mi Calm Calm - N/A   Clear
2:35 AM 59.4 °F - 50.9 °F 74% 30.09 in 10.0 mi Calm Calm - N/A   Clear
2:55 AM 59.0 °F - 51.1 °F 75% 30.09 in 10.0 mi Calm Calm - N/A   Clear
3:15 AM 58.5 °F - 51.1 °F 76% 30.09 in 10.0 mi Calm Calm - N/A   Clear
3:35 AM 58.3 °F - 50.9 °F 76% 30.10 in 10.0 mi ESE 3.5 mph - N/A   Clear
3:55 AM 57.7 °F - 51.1 °F 78% 30.10 in 10.0 mi ESE 3.5 mph - N/A   Clear
4:15 AM 57.4 °F - 52.0 °F 82% 30.10 in 10.0 mi ESE 4.6 mph - N/A   Clear
4:35 AM 56.5 °F - 51.1 °F 82% 30.10 in 10.0 mi East 4.6 mph - N/A   Clear
4:55 AM 56.5 °F - 49.6 °F 78% 30.10 in 10.0 mi East 3.5 mph - N/A   Clear
5:15 AM 56.3 °F - 48.7 °F 76% 30.11 in 10.0 mi Calm Calm - N/A   Clear
5:35 AM 56.3 °F - 48.6 °F 75% 30.11 in 10.0 mi Calm Calm - N/A   Clear
5:55 AM 55.9 °F - 48.4 °F 76% 30.12 in 10.0 mi Calm Calm - N/A   Scattered Clouds
6:15 AM 55.8 °F - 49.6 °F 80% 30.12 in 10.0 mi Calm Calm - N/A   Mostly Cloudy
6:35 AM 55.4 °F - 50.2 °F 83% 30.12 in 10.0 mi Calm Calm - N/A   Scattered Clouds
6:55 AM 57.4 °F - 48.4 °F 72% 30.13 in 10.0 mi Calm Calm - N/A   Clear
7:15 AM 58.3 °F - 47.7 °F 68% 30.14 in 10.0 mi Calm Calm - N/A   Clear
7:35 AM 59.5 °F - 48.9 °F 68% 30.14 in 10.0 mi East 4.6 mph - N/A   Clear
7:55 AM 60.8 °F - 48.7 °F 64% 30.14 in 10.0 mi ESE 4.6 mph - N/A   Clear
8:15 AM 61.9 °F - 48.2 °F 61% 30.14 in 10.0 mi East 6.9 mph - N/A   Clear
8:35 AM 63.3 °F - 48.2 °F 58% 30.13 in 10.0 mi ESE 4.6 mph - N/A   Clear
8:55 AM 65.3 °F - 48.4 °F 54% 30.13 in 10.0 mi SE 4.6 mph - N/A   Clear
9:15 AM 66.6 °F - 48.0 °F 51% 30.13 in 10.0 mi ESE 3.5 mph - N/A   Clear
9:35 AM 68.0 °F - 49.6 °F 52% 30.13 in 10.0 mi ESE 4.6 mph - N/A   Clear
9:55 AM 68.9 °F - 49.1 °F 49% 30.13 in 10.0 mi SE 4.6 mph - N/A   Clear
10:15 AM 70.7 °F - 50.2 °F 48% 30.12 in 10.0 mi ESE 4.6 mph - N/A   Clear
10:35 AM 70.3 °F - 49.1 °F 47% 30.11 in 10.0 mi SE 4.6 mph - N/A   Scattered Clouds
10:55 AM 72.1 °F - 50.2 °F 46% 30.10 in 10.0 mi SE 6.9 mph - N/A   Scattered Clouds
11:15 AM 72.3 °F - 50.0 °F 45% 30.10 in 10.0 mi Calm Calm - N/A   Clear
11:35 AM 73.0 °F - 50.2 °F 44% 30.10 in 10.0 mi East 4.6 mph - N/A   Clear
11:55 AM 75.0 °F - 52.0 °F 44% 30.10 in 10.0 mi East 6.9 mph - N/A   Mostly Cloudy
12:15 PM 75.6 °F - 52.2 °F 44% 30.09 in 10.0 mi ESE 6.9 mph - N/A   Scattered Clouds
12:35 PM 75.4 °F - 51.8 °F 44% 30.09 in 10.0 mi Calm Calm - N/A   Clear
12:55 PM 75.7 °F - 53.1 °F 45% 30.08 in 10.0 mi East 6.9 mph - N/A   Clear
1:15 PM 77.4 °F - 54.7 °F 45% 30.08 in 10.0 mi ESE 5.8 mph - N/A   Scattered Clouds
1:35 PM 76.3 °F - 54.9 °F 47% 30.08 in 10.0 mi South 5.8 mph - N/A   Scattered Clouds
1:55 PM 77.5 °F - 54.5 °F 45% 30.07 in 10.0 mi ESE 5.8 mph - N/A   Mostly Cloudy
2:15 PM 78.3 °F - 54.9 °F 44% 30.06 in 10.0 mi SE 5.8 mph - N/A   Scattered Clouds
2:35 PM 78.3 °F - 54.3 °F 43% 30.06 in 10.0 mi South 3.5 mph - N/A   Scattered Clouds
2:55 PM 78.8 °F - 54.0 °F 42% 30.06 in 10.0 mi SE 5.8 mph - N/A   Scattered Clouds
3:15 PM 79.3 °F - 55.2 °F 43% 30.05 in 10.0 mi SE 3.5 mph - N/A   Scattered Clouds
3:35 PM 78.8 °F - 54.7 °F 43% 30.05 in 10.0 mi SE 5.8 mph - N/A   Scattered Clouds
3:55 PM 79.7 °F - 54.1 °F 41% 30.05 in 10.0 mi SE 6.9 mph - N/A   Scattered Clouds
4:15 PM 79.3 °F - 55.2 °F 43% 30.05 in 10.0 mi South 3.5 mph - N/A   Scattered Clouds
4:35 PM 80.1 °F 80.1 °F 54.9 °F 42% 30.04 in 10.0 mi Calm Calm - N/A   Clear
4:55 PM 79.7 °F - 54.7 °F 42% 30.04 in 10.0 mi South 4.6 mph - N/A   Mostly Cloudy
5:15 PM 79.9 °F - 54.9 °F 42% 30.04 in 10.0 mi SE 4.6 mph - N/A   Scattered Clouds
5:35 PM 79.9 °F - 54.9 °F 42% 30.03 in 10.0 mi South 3.5 mph - N/A   Clear
5:55 PM 79.9 °F - 56.5 °F 45% 30.03 in 10.0 mi SE 5.8 mph - N/A   Clear
6:15 PM 79.7 °F - 56.7 °F 45% 30.02 in 10.0 mi ESE 5.8 mph - N/A   Clear
6:35 PM 79.3 °F - 55.8 °F 44% 30.02 in 10.0 mi ESE 6.9 mph - N/A   Clear
6:55 PM 79.0 °F - 56.1 °F 45% 30.03 in 10.0 mi East 6.9 mph - N/A   Clear
7:15 PM 78.8 °F - 55.4 °F 44% 30.03 in 10.0 mi SE 4.6 mph - N/A   Clear
7:35 PM 78.1 °F - 56.3 °F 47% 30.03 in 10.0 mi SE 4.6 mph - N/A   Clear
7:55 PM 77.0 °F - 56.1 °F 48% 30.02 in 10.0 mi ESE 5.8 mph - N/A   Clear
8:15 PM 74.8 °F - 58.5 °F 57% 30.02 in 10.0 mi East 4.6 mph - N/A   Clear
8:35 PM 73.2 °F - 58.6 °F 60% 30.02 in 10.0 mi East 4.6 mph - N/A   Clear
8:55 PM 72.0 °F - 59.2 °F 64% 30.02 in 10.0 mi ESE 4.6 mph - N/A   Clear
9:15 PM 70.7 °F - 59.4 °F 67% 30.03 in 10.0 mi East 5.8 mph - N/A   Clear
9:35 PM 70.2 °F - 59.0 °F 68% 30.03 in 10.0 mi ESE 4.6 mph - N/A   Clear
9:55 PM 69.1 °F - 59.9 °F 72% 30.04 in 10.0 mi Calm Calm - N/A   Clear
10:15 PM 67.8 °F - 61.3 °F 80% 30.05 in 10.0 mi Calm Calm - N/A   Clear
10:35 PM 69.3 °F - 58.5 °F 68% 30.05 in 10.0 mi Calm Calm - N/A   Clear
10:55 PM 67.6 °F - 59.0 °F 74% 30.05 in 10.0 mi Calm Calm - N/A   Clear
11:15 PM 67.1 °F - 58.3 °F 73% 30.06 in 10.0 mi Calm Calm - N/A   Clear
11:35 PM 66.7 °F - 59.4 °F 77% 30.06 in 10.0 mi Calm Calm - N/A   Clear
11:55 PM 67.3 °F - 58.8 °F 74% 30.06 in 10.0 mi Calm Calm - N/A   Clear